Terminal Aerodrome Forecast
Issued by NWS Omaha/Valley, NE

Home | Current Version | Previous Version | Graphics & Text | Print | Product List | Glossary On
Versions: 1 2 3 4 5 6 7 8 9 10 11 12 13 14 15 16 17 18 19 20 21 22 23 24 25 26 27 28 29 30 31
000
FTUS43 KOAX 250520
TAFOFK
TAF
KOFK 250520Z 2506/2606 17014G22KT P6SM BKN250
      TEMPO 2506/2507 VRB15G25KT P6SM -TSRA BKN060CB
     FM251400 24013G20KT P6SM BKN150
     FM251600 30012G20KT P6SM BKN150
     FM260000 35010KT P6SM BKN150=

USA.gov is the U.S. government's official web portal to all federal, state and local government web resources and services.